TimeEDT,TemperatureF,Dew PointF,Humidity,Sea Level PressureIn,VisibilityMPH,Wind Direction,Wind SpeedMPH,Gust SpeedMPH,PrecipitationIn,Events,Conditions,WindDirDegrees,DateUTC
12:15 AM,57.2,53.6,88,29.81,8.0,SSW,3.5,-,N/A,,Overcast,210,2013-06-16 04:15:00
12:35 AM,57.2,53.6,88,29.81,8.0,SSW,3.5,-,N/A,,Overcast,210,2013-06-16 04:35:00
12:55 AM,57.2,53.6,88,29.81,7.0,Calm,Calm,-,N/A,,Overcast,0,2013-06-16 04:55:00
1:15 AM,-9999,-9999,N/A,29.80,6.0,West,5.8,-,N/A,,Overcast,280,2013-06-16 05:15:00
1:35 AM,-9999,-9999,N/A,29.79,6.0,Calm,Calm,-,N/A,,Overcast,0,2013-06-16 05:35:00
1:55 AM,-9999,-9999,N/A,29.79,6.0,WNW,3.5,-,N/A,,Overcast,300,2013-06-16 05:55:00
2:15 AM,57.2,53.6,88,29.79,6.0,WNW,4.6,-,N/A,,Overcast,290,2013-06-16 06:15:00
2:35 AM,57.2,53.6,88,29.79,7.0,WNW,8.1,-,N/A,,Overcast,290,2013-06-16 06:35:00
2:55 AM,60.8,57.2,88,29.80,1.8,NW,8.1,-,N/A,,Overcast,310,2013-06-16 06:55:00
3:15 AM,60.8,57.2,88,29.80,0.8,WNW,6.9,-,N/A,,Overcast,300,2013-06-16 07:15:00
3:35 AM,60.8,57.2,88,29.79,0.5,WNW,5.8,-,N/A,,Overcast,290,2013-06-16 07:35:00
3:55 AM,60.8,57.2,88,29.79,0.5,WNW,6.9,-,N/A,,Overcast,300,2013-06-16 07:55:00
4:15 AM,60.8,59.0,94,29.79,1.0,WNW,6.9,-,N/A,,Overcast,300,2013-06-16 08:15:00
4:35 AM,62.6,59.0,88,29.78,1.8,WNW,6.9,-,N/A,,Overcast,290,2013-06-16 08:35:00
4:55 AM,62.6,59.0,88,29.77,5.0,West,4.6,-,N/A,,Overcast,280,2013-06-16 08:55:00
5:15 AM,60.8,57.2,88,29.77,4.0,WNW,4.6,-,N/A,,Overcast,290,2013-06-16 09:15:00
5:35 AM,60.8,57.2,88,29.77,5.0,WNW,4.6,-,N/A,,Overcast,290,2013-06-16 09:35:00
5:55 AM,60.8,57.2,88,29.77,4.0,West,5.8,-,N/A,,Mostly Cloudy,280,2013-06-16 09:55:00
6:15 AM,60.8,57.2,88,29.78,5.0,West,5.8,-,N/A,,Partly Cloudy,280,2013-06-16 10:15:00
6:35 AM,60.8,57.2,88,29.79,4.0,West,4.6,-,N/A,,Clear,280,2013-06-16 10:35:00
6:55 AM,60.8,57.2,88,29.79,4.0,WNW,5.8,-,N/A,,Clear,290,2013-06-16 10:55:00
7:15 AM,62.6,57.2,82,29.79,8.0,WNW,8.1,-,N/A,,Partly Cloudy,290,2013-06-16 11:15:00
7:35 AM,62.6,59.0,88,29.79,10.0,West,10.4,-,N/A,,Partly Cloudy,280,2013-06-16 11:35:00
7:55 AM,-9999,-9999,N/A,29.79,10.0,West,9.2,-,N/A,,Clear,280,2013-06-16 11:55:00
8:15 AM,-9999,-9999,N/A,29.78,10.0,WNW,12.7,16.1,N/A,,Clear,290,2013-06-16 12:15:00
8:35 AM,66.2,57.2,73,29.79,10.0,West,8.1,-,N/A,,Clear,280,2013-06-16 12:35:00
8:55 AM,66.2,57.2,73,29.79,10.0,WNW,8.1,-,N/A,,Clear,290,2013-06-16 12:55:00
9:15 AM,68.0,57.2,68,29.80,10.0,West,10.4,-,N/A,,Clear,270,2013-06-16 13:15:00
9:35 AM,-9999,-9999,N/A,29.79,10.0,West,10.4,-,N/A,,Clear,270,2013-06-16 13:35:00
9:55 AM,-9999,-9999,N/A,29.79,10.0,West,10.4,-,N/A,,Clear,260,2013-06-16 13:55:00
10:15 AM,71.6,57.2,60,29.79,10.0,WNW,9.2,-,N/A,,Clear,300,2013-06-16 14:15:00
10:35 AM,71.6,55.4,57,29.78,10.0,West,9.2,-,N/A,,Clear,280,2013-06-16 14:35:00
10:55 AM,-9999,-9999,N/A,29.77,10.0,WNW,9.2,-,N/A,,Clear,290,2013-06-16 14:55:00
11:15 AM,-9999,-9999,N/A,29.76,10.0,WNW,12.7,19.6,N/A,,Clear,290,2013-06-16 15:15:00
11:35 AM,-9999,-9999,N/A,29.76,10.0,WNW,13.8,21.9,N/A,,Clear,290,2013-06-16 15:35:00
11:55 AM,-9999,-9999,N/A,29.76,10.0,West,15.0,20.7,N/A,,Clear,280,2013-06-16 15:55:00
12:15 PM,-9999,-9999,N/A,29.75,10.0,NW,17.3,21.9,N/A,,Clear,310,2013-06-16 16:15:00
12:35 PM,-9999,-9999,N/A,29.75,10.0,WNW,15.0,21.9,N/A,,Clear,300,2013-06-16 16:35:00
12:55 PM,-9999,-9999,N/A,29.74,10.0,West,19.6,26.5,N/A,,Scattered Clouds,280,2013-06-16 16:55:00
1:15 PM,-9999,-9999,N/A,29.76,10.0,West,16.1,24.2,N/A,,Mostly Cloudy,270,2013-06-16 17:15:00
1:35 PM,-9999,-9999,N/A,29.75,10.0,NW,18.4,25.3,N/A,,Mostly Cloudy,310,2013-06-16 17:35:00
1:55 PM,-9999,-9999,N/A,29.74,10.0,West,18.4,24.2,N/A,,Mostly Cloudy,280,2013-06-16 17:55:00
2:15 PM,-9999,-9999,N/A,29.75,10.0,NW,13.8,25.3,N/A,,Mostly Cloudy,310,2013-06-16 18:15:00
2:35 PM,78.8,46.4,32,29.76,10.0,WNW,13.8,21.9,N/A,,Mostly Cloudy,290,2013-06-16 18:35:00
2:55 PM,78.8,46.4,32,29.76,10.0,NW,10.4,21.9,N/A,,Mostly Cloudy,320,2013-06-16 18:55:00
3:15 PM,80.6,46.4,30,29.76,10.0,NW,11.5,18.4,N/A,,Scattered Clouds,310,2013-06-16 19:15:00
3:35 PM,-9999,-9999,N/A,29.75,10.0,NW,9.2,18.4,N/A,,Scattered Clouds,310,2013-06-16 19:35:00
3:55 PM,80.6,46.4,30,29.76,10.0,NW,12.7,23.0,N/A,,Partly Cloudy,310,2013-06-16 19:55:00
4:15 PM,-9999,-9999,N/A,29.76,10.0,NW,11.5,17.3,N/A,,Scattered Clouds,310,2013-06-16 20:15:00
4:35 PM,-9999,-9999,N/A,29.77,10.0,WNW,9.2,-,0.02,,Mostly Cloudy,300,2013-06-16 20:35:00
4:55 PM,78.8,55.4,44,29.77,10.0,West,12.7,17.3,0.03,,Scattered Clouds,280,2013-06-16 20:55:00
5:15 PM,82.4,50.0,32,29.77,10.0,NW,8.1,23.0,N/A,,Mostly Cloudy,320,2013-06-16 21:15:00
5:35 PM,80.6,48.2,32,29.78,10.0,NNW,9.2,17.3,N/A,,Overcast,340,2013-06-16 21:35:00
5:55 PM,78.8,48.2,34,29.78,10.0,NNW,5.8,17.3,N/A,,Mostly Cloudy,330,2013-06-16 21:55:00
6:15 PM,80.6,48.2,32,29.78,10.0,WNW,11.5,-,N/A,,Mostly Cloudy,290,2013-06-16 22:15:00
6:35 PM,78.8,46.4,32,29.79,10.0,NNW,5.8,17.3,N/A,,Mostly Cloudy,340,2013-06-16 22:35:00
6:55 PM,78.8,48.2,34,29.78,10.0,NW,5.8,-,N/A,,Mostly Cloudy,310,2013-06-16 22:55:00
7:15 PM,-9999,-9999,N/A,29.79,10.0,East,5.8,-,N/A,,Overcast,100,2013-06-16 23:15:00
7:35 PM,75.2,51.8,44,29.78,10.0,ESE,10.4,-,N/A,,Overcast,120,2013-06-16 23:35:00
7:55 PM,77.0,50.0,39,29.78,10.0,WSW,11.5,-,N/A,,Mostly Cloudy,250,2013-06-16 23:55:00
8:15 PM,-9999,-9999,N/A,29.78,10.0,West,10.4,-,N/A,,Partly Cloudy,280,2013-06-17 00:15:00
8:35 PM,-9999,-9999,N/A,29.78,10.0,West,15.0,21.9,N/A,,Clear,280,2013-06-17 00:35:00
8:55 PM,-9999,-9999,N/A,29.82,10.0,North,12.7,23.0,N/A,,Clear,350,2013-06-17 00:55:00
9:15 PM,69.8,50.0,49,29.84,10.0,North,10.4,18.4,N/A,,Clear,360,2013-06-17 01:15:00
9:35 PM,64.4,50.0,59,29.88,10.0,North,9.2,24.2,N/A,,Scattered Clouds,360,2013-06-17 01:35:00
9:55 PM,62.6,50.0,63,29.85,10.0,NE,4.6,-,N/A,,Mostly Cloudy,50,2013-06-17 01:55:00
10:15 PM,62.6,48.2,59,29.88,10.0,NW,4.6,-,N/A,,Partly Cloudy,310,2013-06-17 02:15:00
10:35 PM,62.6,50.0,63,29.87,10.0,Calm,Calm,-,N/A,,Scattered Clouds,0,2013-06-17 02:35:00
10:55 PM,60.8,50.0,68,29.87,10.0,West,5.8,-,N/A,,Partly Cloudy,280,2013-06-17 02:55:00
11:15 PM,59.0,50.0,72,29.87,10.0,West,3.5,-,N/A,,Partly Cloudy,280,2013-06-17 03:15:00
11:35 PM,60.8,50.0,68,29.86,10.0,NW,4.6,-,N/A,,Scattered Clouds,310,2013-06-17 03:35:00
11:55 PM,60.8,50.0,68,29.87,10.0,NW,4.6,-,N/A,,Overcast,310,2013-06-17 03:55:00